Showing default

A-1 (ASTERIX), 1778

Orbit data source: Space-Track

A-1 (ASTERIX), 1778 is a payload satellite owned by CNES (FR) in LEO that was launched on Fri, 26 Nov 1965 UTC via a DIAMANT A launch vehicle from the Hamma Guira Space Track Range (HGSTR). Payload-class satellites include a variety of spacecraft equipped with specific instruments for various scientific and technological missions. These include communications satellites like Starlink; space stations such as the ISS; scientific satellites like the Hubble; Earth observation satellites from companies like Planet Labs, Umbra, and HawkEye 360; GPS; miniature CubeSats for education and research; and military/defense satellites.

Loading next visibility...
Identifier
1778, 1965-096A
Orbit
LEO
Country
Flag of FRFR
Related business
Manufacturer
CNES
Mission
Spacecraft
Bus & Motor
A-1, Unknown motor
Mass
42 kg wet, 42 kg dry
Launch date (UTC)
1965-11-26 (60 years ago)
Launch vehicle
DIAMANT A
Launch site
Hamma Guira Space Track Range (HGSTR)
Object type
Payload
Rocket body
Debris
Shape & HBR
Unknown
Radar Cross Section
Medium (>0.1 m² and <1 m²)

Expand to show TLE details & history
Last TLE update: 19 hours ago

TLE from 19 hours ago
0 A-1 (ASTERIX)
1 01778U 65096A   26127.16521812  .00000224  00000-0  55853-4 0  9991
2 01778  34.2603  73.0713 0740156 269.4746  82.1126 13.49774233959247
Epoch: 2026-05-07T03:57Z
TLE epoch observation values (Epoch: 2026-05-07T03:57:54.845Z)
Latitude
-0.00002°
Longitude
148.57747°
Altitude
1,036.847 km
Speed
7.353 km/s
True Right ascension
04h 52m 17s
True Declination
0° 00' 00"
Sunlit
Object was in daylight at epoch
Visualization orbit readout
Latitude
Unknown
Longitude
Unknown
Altitude
Unknown
Speed
Unknown
Apparent Right ascension
Unknown
Apparent Declination
Unknown
Sunlit
N/A
Visualization observer readout
Local Sidereal Time
07:12:54
Azimuth
Unknown
Elevation
Unknown
Doppler factor
Unknown
Orbital elements
Apogee altitude
1,627.96 km
Perigee altitude
524.483 km
Semi-major axis
7,454.358 km
Eccentricity
0.07402
Inclination
34.2603°
RAAN
73.0713°
Arg. of periapsis
269.4746°
True anomaly
90.59081°
Mean anomaly
82.1126°
Eccentric anomaly
86.34475°
Mean motion
3.37231 °/min
Orbital period
106.75 mins
BSTAR
0.000055853
Loading maneuver chart data...
Computing Atmospheric mass density...
Loading historical data...
Loading historical data...
Loading historical data...
Loading historical data...
Loading historical data...
Loading historical data...
Loading historical data...
Other satellites on launch #96 in the year 1965 (1965-11-26 UTC)

Documentation

Showing up to 5 results
|